Hourly Data Report for July 05, 2017

QUALICUM BEACH AIRPORT
BRITISH COLUMBIA

49°20'14.000" N
124°23'38.000" W
58.20 m
1026562
71766
VOQ

Download Data

Hourly Data (July 2017)
Hourly Data Report for July 5, 2017
TIME
LST
Temp Definition
°C
Dew Point Definition
°C
Rel Hum Definition
%
Precip. Amount Definition
mm

Wind Dir Definition
10's deg

Wind Spd Definition
km/h
Visibility Definition
km
Stn Press Definition
kPa
Hmdx Definition


Wind Chill Definition


Weather Definition


00:00 13.5 10.8 84 0.0 27 3   100.84     LegendNANA
01:00 12.5 10.5 87 0.0 23 3   100.87     LegendNANA
02:00 12.6 10.2 86 0.0 28 2   100.89     LegendNANA
03:00 11.4 9.5 89 0.0 24 2   100.88     LegendNANA
04:00 10.7 9.5 92 0.0 27 2   100.89     LegendNANA
05:00 10.7 9.0 89 0.0 24 1   100.92     LegendNANA
06:00 13.8 10.4 80 0.0 28 3   100.95     LegendNANA
07:00 16.6 10.1 66 0.0 32 9   100.98     LegendNANA
08:00 17.4 10.0 62 0.0 32 8   101.00     LegendNANA
09:00 19.1 10.8 59 0.0 32 8   100.99     LegendNANA
10:00 20.0 10.9 56 0.0 33 11   100.96     LegendNANA
11:00 20.3 12.1 59 0.0 36 7   100.95     LegendNANA
12:00 21.8 9.5 45 0.0 2 7   100.93     LegendNANA
13:00 23.7 10.1 42 0.0 35 7   100.90 25   LegendNANA
14:00 24.2 10.0 41 0.0 4 6   100.88 25   LegendNANA
15:00 25.6 8.9 35 0.0 6 5   100.86 26   LegendNANA
16:00 25.8 7.3 31 0.0 6 5   100.82 26   LegendNANA
17:00 26.7 7.4 29 0.0 4 5   100.79 27   LegendNANA
18:00 26.3 10.0 36 0.0 8 4   100.77 28   LegendNANA
19:00 24.6 10.9 42 0.0 10 4   100.78 26   LegendNANA
20:00 22.0 12.7 56 0.0 0 1   100.81 25   LegendNANA
21:00 19.0 12.9 68 0.0 23 2   100.87     LegendNANA
22:00 17.2 12.6 75 0.0 28 2   100.92     LegendNANA
23:00 16.2 12.0 76 0.0 0 1   100.96     LegendNANA

Notes on Data Quality.

Legend

  • E = Estimated
  • M = Missing
  • NA = Not Available*
  • [empty] = Indicates an unobserved value
Date modified: